Location: Falniów
(50.3639°N, 19.9642°E)
Time: 13:23:51
(UTC+00:00)

Cosmos 2082 Rocket - Pass Details

Date: 22 April 2026
Orbit: 831 x 853 km, 71.0° (Epoch: 19 May)

Event Time Altitude Azimuth Distance (km) Brightness Sun altitude
Exits shadow 00:59:37 28° 262° (W) 1,553 3.2 -20.3°
Maximum altitude 01:01:59 41° 310° (NW) 1,226 3.0 -20.1°
Drops below altitude 10° 01:07:23 10° 20° (NNE) 2,494 5.7 -19.6°
Sets 01:10:01 0° 28° (NNE) 3,432 6.9 -19.3°
